Regional Weather Roundup
Issued by NWS Sterling, VA

Home | Current Version | Previous Version | Graphics & Text | Print | Product List | Glossary On
Versions: 1 2 3 4 5 6 7 8 9 10 11 12 13 14 15 16 17 18 19 20 21 22 23 24 25 26 27 28 29 30 31 32 33 34 35 36 37 38 39 40 41 42 43 44 45 46 47 48 49 50
000
ASUS41 KLWX 191110
RWRLWX

REGIONAL WEATHER ROUNDUP
NATIONAL WEATHER SERVICE BALTIMORE MD/WASHINGTON DC
600 AM EST FRI DEC 19 2014

Note: "FAIR" indicates few or no clouds below 12,000 feet
with no significant weather and/or obstructions to visibility.
 TC=TEMPERATURE CELSIUS

 * =Non NWS site. Station does not report precipitation (e.g. rain,
    snow, etc.), thunder, or fog.

DCZ001-MDZ009-015-VAZ040>042-051-053>054-191200-
WASHINGTON METRO

CITY           SKY/WX    TMP DP  RH WIND       PRES   REMARKS
WASHINGTON NAT CLOUDY    37  21  52 NW7       30.13S
DULLES         MOCLDY    32  22  66 NW10      30.12S WCI  24
ANDREWS AFB    CLOUDY    34  21  60 NW9       30.10S WCI  26
FT BELVOIR     CLOUDY    35  22  59 NW7       30.13S
QUANTICO       MOCLDY    35  21  56 N8        30.15R WCI  29
COLLEGE PARK*  CLOUDY    36  25  64 W5        30.11S
LEESBURG*      CLOUDY    34  27  75 NW10      30.13R WCI  26
MANASSAS*      CLOUDY    34  25  69 NW14      30.13S WCI  24
GAITHERSBURG*  CLOUDY    32  21  64 NW9       30.13S WCI  24

$$

MDZ006>007-011-014-191200-
BALTIMORE METRO

CITY           SKY/WX    TMP DP  RH WIND       PRES   REMARKS
BWI AIRPORT    CLOUDY    34  23  64 W7        30.10R
MD SCIENCE CTR   N/A     36  23  59 MISG      30.11R
MARTIN STATE   CLOUDY    36  27  69 W10       30.12R WCI  28
ANNAPOLIS      CLOUDY    35  24  64 NW7       30.11R
FORT MEADE*    CLOUDY    34  25  69 W5        30.13S

$$

MDZ012-015-019>023-191200-
MARYLAND EASTERN SHORE

CITY           SKY/WX    TMP DP  RH WIND       PRES   REMARKS
OCEAN CITY     CLOUDY    34  25  69 NW6       30.08S
SALISBURY      MOCLDY    36  25  64 NW9       30.09R WCI  29
BAY BRIDGE AP*   N/A     34  25  69 W10       30.11R WCI  26
CAMBRIDGE*     MOCLDY    37  27  65 NW10      30.10R
EASTON*        CLOUDY    37  27  65 NW10      30.13S

$$

MDZ017>025-191200-
SOUTHERN MARYLAND

CITY           SKY/WX    TMP DP  RH WIND       PRES   REMARKS
PATUXENT RIVER MOCLDY    35  23  61 NW16      30.11S WCI  25
ST INIGOES     CLOUDY    35  22  58 NW6       30.11S
LEONARDTOWN*   CLOUDY    34  23  64 NW3       30.12F

$$

MDZ003>005-191200-
NORTH CENTRAL MARYLAND

CITY           SKY/WX    TMP DP  RH WIND       PRES   REMARKS
FREDERICK*     NOT AVBL
HAGERSTOWN APT CLOUDY    33  22  63 NW18      30.09R WCI  22
WESTMINSTER*   CLOUDY    32  25  74 W7        30.07R

$$

MDZ501>502-191200-
WESTERN MARYLAND

CITY           SKY/WX    TMP DP  RH WIND       PRES   REMARKS
OAKLAND*       FOG       21 N/A N/A W7        30.02S VSB 3/4
CUMBERLAND*    NOT AVBL

$$

VAZ025>031-191200-
SHENANDOAH VALLEY

CITY           SKY/WX    TMP DP  RH WIND       PRES   REMARKS
WINCHESTER*    CLOUDY    34  19  55 NW16G23   30.11R WCI  23
FRONT ROYAL*   CLOUDY    32  23  69 NW3       30.11S
LURAY*         PTSUNNY   28  27  93 CALM      30.11R
NEW MARKET*    FAIR      25  22  89 CALM      30.11R
STAUNTON*      CLEAR     23  20  88 CALM      30.12R
WAYNESBORO*    FAIR      28  22  80 N3        30.09R

$$

WVZ021-048>050-054>055-191200-
EASTERN WEST VIRGINIA PANHANDLE

CITY           SKY/WX    TMP DP  RH WIND       PRES   REMARKS
MARTINSBURG    CLOUDY    34  19  54 NW9       30.12R WCI  27
PETERSBURG*    MOCLDY    31  22  70 NW3       30.14S

$$

VAZ036>039-050-191200-
CENTRAL FOOTHILLS

CITY           SKY/WX    TMP DP  RH WIND       PRES   REMARKS
CHARLOTTESVILL CLEAR     30  22  72 CALM      30.10R
CULPEPER*      MOCLDY    27  25  93 CALM      30.12S
ORANGE*        CLEAR     28  25  86 CALM      30.14R
GORDONSVILLE*  FAIR      26  23  89 CALM      30.12R
WARRENTON*     CLOUDY    31  28  90 CALM      30.12R

$$

VAZ055>057-191200-
NORTH AND CENTRAL PIEDMONT

CITY           SKY/WX    TMP DP  RH WIND       PRES   REMARKS
FREDERICKSBRG* PTCLDY    34  25  68 CALM      30.13R
STAFFORD*      CLEAR     29  23  77 CALM      30.17R

$$

NCZ024-NYZ072-PAZ021-071-VAZ022-071-191200-
OTHER REGIONAL OBSERVATIONS

CITY           SKY/WX    TMP DP  RH WIND       PRES   REMARKS
NEW YORK CITY  CLOUDY    37  21  52 NW8       30.00R
PHILADELPHIA   CLOUDY    37  24  59 W10       30.05S
PITTSBURGH     FRZ DRZL  27  25  92 W8        30.14S FOG     WCI  19
ROANOKE        CLEAR     34  19  54 NW10      30.15R WCI  26
RICHMOND       PTCLDY    33  22  63 NW3       30.13R
RALEIGH        MOCLDY    40  30  67 CALM      30.13R

$$

ANZ530>537-191200-
MARINE OBSERVATIONS

STATION/POSITION TIME  TEMP    WIND        PRES
                       AIR SEA DIR/SP/G
                 (UTC) (F)     (DEG/KT/KT) (MB)
THOMAS PT LIGHT  1100   35 41  300/ 12/ 14 1020.6R
BALT KEY BRIDGE  1100   35     270/ 10/ 11 1019.2R
COVE POINT       1100   35     340/ 13/ 16 1019.1F
LEWISETTA        1100   36 43  350/ 10/ 13 1019.6R
SOLOMONS ISLAND  1100      44                N/A
PINEY POINT      1100          350/ 13/ 14   N/A

$$



USA.gov is the U.S. government's official web portal to all federal, state and local government web resources and services.